Weather History for Lancaster, CA

Change the Weather History Date:

Thursday, February 28, 2013

  Actual Average Record
Temperature  
Mean Temperature 46 °F 51 °F  
Max Temperature 69 °F 64 °F 81 °F (1986)
Min Temperature 22 °F 37 °F 20 °F (1962)
Degree Days  
Heating Degree Days 19    
Month to date heating degree days 540  
Since 1 July heating degree days 2372  
Cooling Degree Days 0    
Month to date cooling degree days 0  
Year to date cooling degree days 0  
Moisture  
Dew Point 9 °F    
Average Humidity 29    
Maximum Humidity 50    
Minimum Humidity 7    
Precipitation  
Precipitation 0.00 in 0.05 in 1.67 in (2014)
Month to date precipitation 0.20 1.78  
Year to date precipitation 0.60 3.28  
Since 1 July precipitation 0.76 5.75  
Snow  
Snow 0.00 in - 0.00 in ()
Month to date snowfall 0.0  
Since 1 July snowfall 0.0  
Snow Depth 0.00 in    
Sea Level Pressure  
Sea Level Pressure 30.41 in    
Wind  
Wind Speed 4 mph (NNW)    
Max Wind Speed 10 mph    
Max Gust Speed 15 mph    
Visibility 10 miles    
Events      
T = Trace of Precipitation, MM = Missing Value Source: NWS Daily Summary

Daily Weather History Graph

Daily Weather History Graph

Search for Another Location

Airport:

Trip Planner

Search our weather history database for the weather conditions in past years. The results will help you decide how hot, cold, wet, or windy it might be!

Date:

Astronomy

Feb. 28, 2013 Rise Set
Actual Time 6:22 AM PST 5:48 PM PST
Civil Twilight 5:57 AM PST 6:13 PM PST
Nautical Twilight 5:28 AM PST 6:42 PM PST
Astronomical Twilight 4:59 AM PST 7:12 PM PST
Moon 9:09 PM PST 7:45 AM PST
Length of Visible Light 12h 15m
Length of Day
11h 25m
Waning Gibbous, 90% of the Moon is Illuminated
Feb 28
Waning Gibbous
Mar 4
Last Quarter
Mar 11
New
Mar 19
First Quarter
Mar 27
Full

Hourly Weather History & Observations

Time (PST) Temp. Windchill Dew Point Humidity Pressure Visibility Wind Dir Wind Speed Gust Speed Precip Events Conditions
12:56 AM 34.0 °F - 10.0 °F 37% 30.40 in 10.0 mi Calm Calm - N/A   Clear
1:56 AM 28.9 °F - 7.0 °F 40% 30.39 in 10.0 mi Calm Calm - N/A   Clear
2:56 AM 30.9 °F - 9.0 °F 40% 30.38 in 10.0 mi Calm Calm - N/A   Clear
3:56 AM 27.0 °F 23.0 °F 10.9 °F 51% 30.40 in 10.0 mi NW 3.5 mph - N/A   Clear
4:56 AM 27.0 °F 21.6 °F 9.0 °F 47% 30.41 in 10.0 mi SW 4.6 mph - N/A   Clear
5:56 AM 26.1 °F - 8.1 °F 47% 30.43 in 10.0 mi Calm Calm - N/A   Clear
6:56 AM 23.0 °F 18.4 °F 7.0 °F 50% 30.45 in 10.0 mi NW 3.5 mph - N/A   Clear
7:56 AM 35.1 °F - 10.9 °F 37% 30.46 in 10.0 mi Calm Calm - N/A   Clear
8:56 AM 48.0 °F - 12.9 °F 24% 30.46 in - Calm Calm - N/A   Clear
9:56 AM 52.0 °F - 10.9 °F 19% 30.46 in - Calm Calm - N/A   Clear
10:56 AM 57.9 °F - 7.0 °F 13% 30.45 in - Calm Calm - N/A   Clear
11:56 AM 63.0 °F - 6.1 °F 11% 30.43 in - Variable 3.5 mph - N/A   Clear
12:56 PM 64.9 °F - 3.9 °F 9% 30.39 in - NNE 6.9 mph - N/A   Clear
1:56 PM 66.9 °F - 1.9 °F 8% 30.38 in - ENE 6.9 mph - N/A   Clear
2:56 PM 68.0 °F - 1.9 °F 7% 30.36 in - ENE 6.9 mph - N/A   Clear
3:56 PM 68.0 °F - 3.0 °F 8% 30.36 in - ENE 5.8 mph - N/A   Clear
4:56 PM 66.9 °F - 3.9 °F 8% 30.36 in - NE 5.8 mph - N/A   Clear
5:56 PM 59.0 °F - 3.9 °F 11% 30.39 in - NNE 5.8 mph - N/A   Clear
6:56 PM 52.0 °F - 3.0 °F 14% 30.42 in - North 4.6 mph - N/A   Clear
7:56 PM 45.0 °F 41.2 °F 5.0 °F 19% 30.43 in - WNW 6.9 mph - N/A   Clear
8:56 PM 46.0 °F 41.4 °F 19.9 °F 35% 30.43 in - West 9.2 mph - N/A   Clear
9:56 PM 46.0 °F - 16.0 °F 30% 30.43 in - Calm Calm - N/A   Clear
10:56 PM 48.0 °F - 25.0 °F 41% 30.42 in - West 4.6 mph - N/A   Clear
11:56 PM 46.0 °F 44.8 °F 21.0 °F 37% 30.42 in - WNW 3.5 mph - N/A   Clear